Regional Weather Roundup
Issued by NWS

Home | Current Version | Previous Version | Graphics & Text | Print | Product List | Glossary Off
Versions: 1 2 3 4 5 6 7 8 9 10 11 12 13 14 15 16 17 18 19 20 21 22 23 24 25 26 27

000
ASUS45 KBOU 212207
RWRCO

WEATHER ROUNDUP FOR COLORADO
NATIONAL WEATHER SERVICE DENVER/BOULDER CO
400 PM MDT FRI JUL 21 2017

NOTE: "FAIR" INDICATES FEW OR NO CLOUDS BELOW 12000 FEET WITH NO
SIGNIFICANT WEATHER AND/OR OBSTRUCTIONS TO VISIBILITY.

COZ001>005-013-030-031-212300-
...NORTHWEST COLORADO...

CITY           SKY/WX    TMP DP  RH WIND       PRES   REMARKS
CRAIG          CLOUDY    75  50  41 W15G24    30.20R THUNDER
HAYDEN         FAIR     N/A N/A N/A SW13G20   30.18F THUNDER
MEEKER         FAIR      83  52  34 SE18G30   30.21R
RABBIT EARS PA CLOUDY    59  48  67 SW3       30.53F
STEAMBOAT SPGS FAIR      83  48  29 S13       30.21F
WALDEN         FAIR      68  50  52 S10       30.36R
$$

COZ006>008-011-212300-
...WEST CENTRAL VALLEYS...

CITY           SKY/WX    TMP DP  RH WIND       PRES   REMARKS
GRAND JUNCTION FAIR      93  49  22 SW10      30.04F
MONTROSE       PTSUNNY   66  55  67 SE17      30.21F
EAGLE          MOSUNNY   75  52  43 NW8       30.25S
RIFLE          FAIR      88  47  24 CALM      30.12F
DELTA          FAIR      82  52  35 E5        30.17R
NUCLA          NOT AVBL
$$

COZ017>023-064>068-212300-
...SOUTHWEST COLORADO...

CITY           SKY/WX    TMP DP  RH WIND       PRES   REMARKS
DURANGO        FAIR      77  47  34 N21G28    30.19S
CORTEZ         CLOUDY    66  60  81 NW10      30.21R THUNDER
PAGOSA SPRINGS PTSUNNY   80  41  25 NE13      30.26F
TELLURIDE      FAIR      64  52  65 W7        30.45F
WOLF CREEK PAS NOT AVBL
$$

COZ009-010-012-014-032>034-037-058>063-212300-
...CENTRAL COLORADO...

CITY           SKY/WX    TMP DP  RH WIND       PRES   REMARKS
ASPEN          FAIR      77  50  38 VRB6      30.31F
BUENA VISTA    PTSUNNY   76  38  25 CALM      30.26S
COPPER MTN     TSTM      54  43  66 S21G30    30.65F
BERTHOUD PASS  TSTM      45  32  61 SE22G28   30.69R
COTTONWOOD PAS CLOUDY    70  30  23 SW18G26   30.43F
GUNNISON       LGT RAIN  67  49  52 SW9       30.30R
KREMMLING      FAIR      79  54  41 S8        30.29R
LEADVILLE      LGT RAIN  60  46  59 NW16G23   30.43R
MONARCH PASS   PTSUNNY   63  37  39 SW14      30.73F
SALIDA         FAIR      84  34  16 W12G23    30.28F
SUNLIGHT       CLOUDY    59  43  55 CALM      30.58F
WILKERSON PASS PTSUNNY   64  41  42 NE6       30.59F
$$

COZ069>075-212300-
...SAN LUIS VALLEY/SANGRE DE CRISTO MOUNTAINS...

CITY           SKY/WX    TMP DP  RH WIND       PRES   REMARKS
ALAMOSA        FAIR      84  38  19 S10       30.23F
DEL NORTE      FAIR      79  46  31 W21G29    30.30S
LA VETA PASS   NOT AVBL
SAGUACHE         N/A    N/A N/A N/A MISG        N/A
$$

COZ035-036-038>040-212300-
...NORTHERN COLORADO FRONT RANGE...

CITY           SKY/WX    TMP DP  RH WIND       PRES   REMARKS
DENVER INTL AP PTSUNNY   91  44  19 E6        30.06S THUNDER
DMNS CITY PARK   N/A     83  43  23 SW16      30.07F
AURORA         PTSUNNY   85  45  24 W12       30.09F
FRONT RANGE AP CLOUDY    91  43  18 NE8       30.08S
ERIE MUNI ARPT PTSUNNY   83  48  29 NW20G38   30.07R
BOULDER MUN AP PTSUNNY   79  50  36 NW21G28   30.09R
CENTENNIAL     TSTM      75  53  46 W15       30.12R
BROOMFIELD     PTSUNNY   86  43  22 S13G23    30.12R
FORT COLLINS   LGT RAIN  83  51  33 N21G31    30.08R
LONGMONT       LGT RAIN  71  59  65 NW21G37   30.12R
$$

COZ041-046-047-076>085-087-088-212300-
...PIKES PEAK/PALMER DIVIDE AND SOUTHERN FOOTHILLS...

CITY           SKY/WX    TMP DP  RH WIND       PRES   REMARKS
COLO. SPRINGS  PTSUNNY   92  46  20 SE13G18   30.13F
A. F. ACADEMY  FAIR      87  47  24 SE10      30.13F
SCHRIEVER AFB  FAIR      87  45  22 SE6       30.13F
CHEYENNE MTN   FAIR      85  40  20 S8        30.14F
ELLICOTT       FAIR       1  32 100 SE10G21   30.10F WCI -15
FALCON           N/A     88  45  22 E8        30.19F
FORT CARSON    FAIR      91  47  22 E6        30.08F
LIMON          FAIR      92  51  24 CALM      30.06F
MONUMENT HILL  CLOUDY    66  50  55 E14       30.24S
CANON CITY     SUNNY     97  48  19 E9        30.03F
WALSENBURG     MOCLDY    95  41  15 E5        30.09F
TRINIDAD       FAIR      93  39  15 S8        30.07F
$$

COZ042>045-048>051-090-091-212300-
...NORTHEAST COLORADO...

CITY           SKY/WX    TMP DP  RH WIND       PRES   REMARKS
GREELEY ARPT   FAIR      94  50  22 NE7       30.02F
AKRON          PTSUNNY   99  46  16 E7        30.00F
BURLINGTON     FAIR      97  49  19 VRB3      29.96F
WRAY           NOT AVBL
YUMA           FAIR      95  54  24 SE3       29.96F
STERLING       FAIR      97  52  21 NE7       29.95S
HOLYOKE        FAIR      99  48  18 N3        29.93S
FORT MORGAN    FAIR      97  42  15 E6        30.00F
$$

COZ086-089-092>099-212300-
...SOUTHEAST COLORADO...

CITY           SKY/WX    TMP DP  RH WIND       PRES   REMARKS
PUEBLO         FAIR      98  48  18 SE12G20   29.97F
LA JUNTA       FAIR      99  53  21 VRB5      29.95F
LAMAR          FAIR     101  48  16 VRB3      29.90F
SPRINGFIELD      N/A     95  49  20 S15       29.98F
$$




USA.gov is the U.S. government's official web portal to all federal, state and local government web resources and services.